Time,TemperatureF,DewpointF,PressureIn,WindDirection,WindDirectionDegrees,WindSpeedMPH,WindSpeedGustMPH,Humidity,HourlyPrecipIn,Conditions,Clouds,dailyrainin,SoftwareType,DateUTC
2013-02-02 00:01:00,54.3,39.3,29.95,ESE,113,3.3,5.3,57,0.00,,,0.00,WUHU216HW,2013-02-02 06:01:00,
2013-02-02 00:06:00,54.3,39.8,29.95,SE,135,0.0,5.3,58,0.00,,,0.00,WUHU216HW,2013-02-02 06:06:00,
2013-02-02 00:11:00,54.3,39.8,29.95,SE,135,1.7,4.4,58,0.00,,,0.00,WUHU216HW,2013-02-02 06:11:00,
2013-02-02 00:16:00,54.1,39.6,29.95,SE,135,0.4,1.7,58,0.00,,,0.00,WUHU216HW,2013-02-02 06:16:00,
2013-02-02 00:21:00,54.1,40.1,29.94,SE,135,1.1,4.2,59,0.00,,,0.00,WUHU216HW,2013-02-02 06:21:00,
2013-02-02 00:26:00,53.9,39.9,29.94,SSE,158,0.6,4.2,59,0.00,,,0.00,WUHU216HW,2013-02-02 06:26:00,
2013-02-02 00:31:00,53.9,39.9,29.94,SSE,158,1.7,1.7,59,0.00,,,0.00,WUHU216HW,2013-02-02 06:31:00,
2013-02-02 00:36:00,53.9,39.9,29.94,SSE,158,0.0,1.7,59,0.00,,,0.00,WUHU216HW,2013-02-02 06:36:00,
2013-02-02 00:41:00,53.7,40.2,29.94,SE,135,0.0,2.4,60,0.00,,,0.00,WUHU216HW,2013-02-02 06:41:00,
2013-02-02 00:46:00,53.7,40.2,29.94,SSE,158,0.0,2.4,60,0.00,,,0.00,WUHU216HW,2013-02-02 06:46:00,
2013-02-02 00:51:00,53.7,40.2,29.94,SE,135,3.8,3.8,60,0.00,,,0.00,WUHU216HW,2013-02-02 06:51:00,
2013-02-02 00:56:00,53.7,40.6,29.94,SE,135,0.0,3.8,61,0.00,,,0.00,WUHU216HW,2013-02-02 06:56:00,
2013-02-02 01:01:00,53.7,40.6,29.94,ESE,113,2.0,2.0,61,0.00,,,0.00,WUHU216HW,2013-02-02 07:01:00,
2013-02-02 01:06:00,53.4,40.3,29.94,SE,135,0.0,2.0,61,0.00,,,0.00,WUHU216HW,2013-02-02 07:06:00,
2013-02-02 01:11:00,53.4,40.7,29.94,SE,135,1.5,1.7,62,0.00,,,0.00,WUHU216HW,2013-02-02 07:11:00,
2013-02-02 01:16:00,53.2,40.9,29.93,SSE,158,0.0,2.4,63,0.00,,,0.00,WUHU216HW,2013-02-02 07:16:00,
2013-02-02 01:21:00,53.2,40.9,29.93,SSE,158,0.6,2.4,63,0.00,,,0.00,WUHU216HW,2013-02-02 07:21:00,
2013-02-02 01:26:00,53.2,41.3,29.93,SE,135,1.5,1.5,64,0.00,,,0.00,WUHU216HW,2013-02-02 07:26:00,
2013-02-02 01:31:00,53.2,41.7,29.93,SSE,158,0.0,1.5,65,0.00,,,0.00,WUHU216HW,2013-02-02 07:31:00,
2013-02-02 01:36:00,53.4,41.9,29.94,SSW,203,0.0,3.8,65,0.00,,,0.00,WUHU216HW,2013-02-02 07:36:00,
2013-02-02 01:41:00,53.4,41.9,29.94,SSW,203,0.0,3.8,65,0.00,,,0.00,WUHU216HW,2013-02-02 07:41:00,
2013-02-02 01:46:00,53.4,41.9,29.94,SSW,203,0.0,0.0,65,0.00,,,0.00,WUHU216HW,2013-02-02 07:46:00,
2013-02-02 01:51:00,53.4,41.9,29.94,SSW,203,0.0,0.0,65,0.00,,,0.00,WUHU216HW,2013-02-02 07:51:00,
2013-02-02 01:56:00,53.2,41.7,29.94,SSW,203,0.0,0.0,65,0.00,,,0.00,WUHU216HW,2013-02-02 07:56:00,
2013-02-02 02:01:00,53.2,41.7,29.94,SSW,203,0.0,0.0,65,0.00,,,0.00,WUHU216HW,2013-02-02 08:01:00,
2013-02-02 02:06:00,52.8,41.3,29.94,SSW,203,0.0,0.0,65,0.00,,,0.00,WUHU216HW,2013-02-02 08:06:00,
2013-02-02 02:11:00,52.7,41.2,29.94,SSW,203,0.0,0.0,65,0.00,,,0.00,WUHU216HW,2013-02-02 08:11:00,
2013-02-02 02:16:00,52.5,41.4,29.94,SSW,203,0.0,0.0,66,0.00,,,0.00,WUHU216HW,2013-02-02 08:16:00,
2013-02-02 02:21:00,52.5,41.8,29.94,ESE,113,0.0,0.0,67,0.00,,,0.00,WUHU216HW,2013-02-02 08:21:00,
2013-02-02 02:26:00,52.5,41.8,29.93,ESE,113,0.0,0.0,67,0.00,,,0.00,WUHU216HW,2013-02-02 08:26:00,
2013-02-02 02:31:00,52.5,41.8,29.93,ESE,113,0.0,0.0,67,0.00,,,0.00,WUHU216HW,2013-02-02 08:31:00,
2013-02-02 02:36:00,52.5,42.2,29.93,SSE,158,0.0,0.6,68,0.00,,,0.00,WUHU216HW,2013-02-02 08:36:00,
2013-02-02 02:41:00,52.5,42.2,29.93,SSE,158,0.0,0.6,68,0.00,,,0.00,WUHU216HW,2013-02-02 08:41:00,
2013-02-02 02:46:00,52.7,42.8,29.93,SE,135,0.0,0.0,69,0.00,,,0.00,WUHU216HW,2013-02-02 08:46:00,
2013-02-02 02:51:00,52.7,42.4,29.93,SE,135,0.0,0.6,68,0.00,,,0.00,WUHU216HW,2013-02-02 08:51:00,
2013-02-02 02:56:00,52.7,42.8,29.93,SE,135,0.0,0.6,69,0.00,,,0.00,WUHU216HW,2013-02-02 08:56:00,
2013-02-02 03:01:00,52.7,42.8,29.93,SE,135,2.6,2.6,69,0.00,,,0.00,WUHU216HW,2013-02-02 09:01:00,
2013-02-02 03:06:00,52.8,43.4,29.93,SE,135,0.0,2.6,70,0.00,,,0.00,WUHU216HW,2013-02-02 09:06:00,
2013-02-02 03:11:00,52.7,43.2,29.93,South,180,0.0,1.5,70,0.00,,,0.00,WUHU216HW,2013-02-02 09:11:00,
2013-02-02 03:16:00,52.7,42.8,29.93,South,180,0.0,0.0,69,0.00,,,0.00,WUHU216HW,2013-02-02 09:16:00,
2013-02-02 03:21:00,52.5,42.6,29.93,SSE,158,0.0,0.0,69,0.00,,,0.00,WUHU216HW,2013-02-02 09:21:00,
2013-02-02 03:26:00,52.5,42.6,29.93,SSE,158,0.0,0.0,69,0.00,,,0.00,WUHU216HW,2013-02-02 09:26:00,
2013-02-02 03:31:00,52.3,42.5,29.93,SSE,158,0.0,0.0,69,0.00,,,0.00,WUHU216HW,2013-02-02 09:31:00,
2013-02-02 03:36:00,52.1,42.3,29.93,SSE,158,0.0,0.0,69,0.00,,,0.00,WUHU216HW,2013-02-02 09:36:00,
2013-02-02 03:41:00,51.9,42.6,29.93,SSE,158,0.0,0.0,70,0.00,,,0.00,WUHU216HW,2013-02-02 09:41:00,
2013-02-02 03:46:00,51.8,42.4,29.93,SSE,158,0.0,0.0,70,0.00,,,0.00,WUHU216HW,2013-02-02 09:46:00,
2013-02-02 03:51:00,51.6,42.2,29.93,ENE,68,0.0,0.6,70,0.00,,,0.00,WUHU216HW,2013-02-02 09:51:00,
2013-02-02 03:56:00,51.2,42.2,29.93,ESE,113,1.5,1.5,71,0.00,,,0.00,WUHU216HW,2013-02-02 09:56:00,
2013-02-02 04:01:00,50.9,41.8,29.93,NNE,23,0.0,1.5,71,0.00,,,0.00,WUHU216HW,2013-02-02 10:01:00,
2013-02-02 04:06:00,50.5,41.5,29.94,NNE,23,0.0,0.0,71,0.00,,,0.00,WUHU216HW,2013-02-02 10:06:00,
2013-02-02 04:11:00,50.1,41.1,29.94,NNE,23,0.0,0.0,71,0.00,,,0.00,WUHU216HW,2013-02-02 10:11:00,
2013-02-02 04:16:00,50.0,40.9,29.94,NE,45,0.0,0.0,71,0.00,,,0.00,WUHU216HW,2013-02-02 10:16:00,
2013-02-02 04:21:00,49.8,40.8,29.94,NE,45,0.0,0.0,71,0.00,,,0.00,WUHU216HW,2013-02-02 10:21:00,
2013-02-02 04:26:00,49.8,41.1,29.94,NE,45,0.0,0.0,72,0.00,,,0.00,WUHU216HW,2013-02-02 10:26:00,
2013-02-02 04:31:00,49.6,40.9,29.94,ENE,68,0.0,0.0,72,0.00,,,0.00,WUHU216HW,2013-02-02 10:31:00,
2013-02-02 04:36:00,49.6,41.3,29.94,ENE,68,0.0,0.0,73,0.00,,,0.00,WUHU216HW,2013-02-02 10:36:00,
2013-02-02 04:41:00,49.2,40.9,29.94,ENE,68,0.0,0.0,73,0.00,,,0.00,WUHU216HW,2013-02-02 10:41:00,
2013-02-02 04:46:00,49.2,40.9,29.94,ENE,68,0.0,0.0,73,0.00,,,0.00,WUHU216HW,2013-02-02 10:46:00,
2013-02-02 04:51:00,49.2,41.2,29.94,ENE,68,0.0,0.0,74,0.00,,,0.00,WUHU216HW,2013-02-02 10:51:00,
2013-02-02 04:56:00,49.1,41.1,29.94,ENE,68,0.0,0.0,74,0.00,,,0.00,WUHU216HW,2013-02-02 10:56:00,
2013-02-02 05:01:00,49.1,41.4,29.94,ENE,68,0.0,0.0,75,0.00,,,0.00,WUHU216HW,2013-02-02 11:01:00,
2013-02-02 05:06:00,48.9,40.9,29.94,ENE,68,0.0,0.0,74,0.00,,,0.00,WUHU216HW,2013-02-02 11:06:00,
2013-02-02 05:11:00,48.9,40.9,29.94,ENE,68,0.0,0.0,74,0.00,,,0.00,WUHU216HW,2013-02-02 11:11:00,
2013-02-02 05:16:00,48.7,41.0,29.94,ENE,68,0.0,0.0,75,0.00,,,0.00,WUHU216HW,2013-02-02 11:16:00,
2013-02-02 05:21:00,48.7,41.0,29.94,ENE,68,0.0,0.0,75,0.00,,,0.00,WUHU216HW,2013-02-02 11:21:00,
2013-02-02 05:26:00,48.7,41.0,29.94,ENE,68,0.0,0.0,75,0.00,,,0.00,WUHU216HW,2013-02-02 11:26:00,
2013-02-02 05:31:00,48.5,41.2,29.94,ENE,68,0.0,0.0,76,0.00,,,0.00,WUHU216HW,2013-02-02 11:31:00,
2013-02-02 05:36:00,48.3,41.0,29.94,ENE,68,0.0,0.0,76,0.00,,,0.00,WUHU216HW,2013-02-02 11:36:00,
2013-02-02 05:41:00,48.3,41.0,29.94,ENE,68,0.0,0.0,76,0.00,,,0.00,WUHU216HW,2013-02-02 11:41:00,
2013-02-02 05:46:00,48.3,41.4,29.94,ENE,68,0.0,0.2,77,0.00,,,0.00,WUHU216HW,2013-02-02 11:46:00,
2013-02-02 05:51:00,48.2,41.2,29.94,ENE,68,0.0,0.2,77,0.00,,,0.00,WUHU216HW,2013-02-02 11:51:00,
2013-02-02 05:56:00,48.2,41.2,29.94,East,90,0.0,0.0,77,0.00,,,0.00,WUHU216HW,2013-02-02 11:56:00,
2013-02-02 06:01:00,48.0,41.0,29.94,ESE,113,0.8,0.8,77,0.00,,,0.00,WUHU216HW,2013-02-02 12:01:00,
2013-02-02 06:06:00,47.8,41.2,29.94,East,90,0.0,0.8,78,0.00,,,0.00,WUHU216HW,2013-02-02 12:06:00,
2013-02-02 06:11:00,47.8,41.2,29.95,East,90,0.0,0.0,78,0.00,,,0.00,WUHU216HW,2013-02-02 12:11:00,
2013-02-02 06:16:00,47.8,41.2,29.95,ESE,113,0.0,0.0,78,0.00,,,0.00,WUHU216HW,2013-02-02 12:16:00,
2013-02-02 06:21:00,47.8,41.2,29.95,East,90,0.2,0.2,78,0.00,,,0.00,WUHU216HW,2013-02-02 12:21:00,
2013-02-02 06:26:00,47.8,41.2,29.95,East,90,0.0,0.2,78,0.00,,,0.00,WUHU216HW,2013-02-02 12:26:00,
2013-02-02 06:31:00,47.6,40.7,29.96,East,90,0.0,0.2,77,0.00,,,0.00,WUHU216HW,2013-02-02 12:31:00,
2013-02-02 06:36:00,47.1,40.2,29.95,East,90,0.0,0.0,77,0.00,,,0.00,WUHU216HW,2013-02-02 12:36:00,
2013-02-02 06:41:00,47.1,40.2,29.95,East,90,0.0,0.0,77,0.00,,,0.00,WUHU216HW,2013-02-02 12:41:00,
2013-02-02 06:46:00,46.9,40.4,29.96,East,90,0.0,0.0,78,0.00,,,0.00,WUHU216HW,2013-02-02 12:46:00,
2013-02-02 06:51:00,47.1,40.6,29.96,East,90,0.0,0.0,78,0.00,,,0.00,WUHU216HW,2013-02-02 12:51:00,
2013-02-02 06:56:00,47.1,40.6,29.96,East,90,0.0,0.0,78,0.00,,,0.00,WUHU216HW,2013-02-02 12:56:00,
2013-02-02 07:01:00,47.1,40.6,29.96,East,90,0.0,0.0,78,0.00,,,0.00,WUHU216HW,2013-02-02 13:01:00,
2013-02-02 07:06:00,47.1,40.6,29.96,East,90,0.0,0.0,78,0.00,,,0.00,WUHU216HW,2013-02-02 13:06:00,
2013-02-02 07:11:00,47.1,40.6,29.97,East,90,0.0,0.0,78,0.00,,,0.00,WUHU216HW,2013-02-02 13:11:00,
2013-02-02 07:16:00,47.1,40.6,29.97,East,90,0.0,0.0,78,0.00,,,0.00,WUHU216HW,2013-02-02 13:16:00,
2013-02-02 07:21:00,46.9,40.4,29.97,East,90,0.0,0.0,78,0.00,,,0.00,WUHU216HW,2013-02-02 13:21:00,
2013-02-02 07:26:00,46.9,40.4,29.97,East,90,0.0,0.0,78,0.00,,,0.00,WUHU216HW,2013-02-02 13:26:00,
2013-02-02 07:31:00,46.7,40.2,29.97,East,90,0.0,0.0,78,0.00,,,0.00,WUHU216HW,2013-02-02 13:31:00,
2013-02-02 07:36:00,46.7,40.2,29.97,East,90,0.0,0.0,78,0.00,,,0.00,WUHU216HW,2013-02-02 13:36:00,
2013-02-02 07:41:00,46.7,40.2,29.97,East,90,0.0,0.0,78,0.00,,,0.00,WUHU216HW,2013-02-02 13:41:00,
2013-02-02 07:46:00,46.9,40.4,29.97,ENE,68,0.0,0.0,78,0.00,,,0.00,WUHU216HW,2013-02-02 13:46:00,
2013-02-02 07:51:00,48.7,42.1,29.97,ENE,68,0.0,0.0,78,0.00,,,0.00,WUHU216HW,2013-02-02 13:51:00,
2013-02-02 07:56:00,50.1,43.2,29.98,East,90,1.5,1.5,77,0.00,,,0.00,WUHU216HW,2013-02-02 13:56:00,
2013-02-02 08:01:00,50.9,43.5,29.98,ESE,113,0.0,1.5,76,0.00,,,0.00,WUHU216HW,2013-02-02 14:01:00,
2013-02-02 08:06:00,50.1,42.8,29.98,ESE,113,0.0,0.0,76,0.00,,,0.00,WUHU216HW,2013-02-02 14:06:00,
2013-02-02 08:11:00,50.0,43.0,29.98,ESE,113,1.7,1.7,77,0.00,,,0.00,WUHU216HW,2013-02-02 14:11:00,
2013-02-02 08:16:00,50.1,43.5,29.98,ESE,113,2.4,2.4,78,0.00,,,0.00,WUHU216HW,2013-02-02 14:16:00,
2013-02-02 08:21:00,50.3,43.3,29.99,ESE,113,0.0,2.4,77,0.00,,,0.00,WUHU216HW,2013-02-02 14:21:00,
2013-02-02 08:26:00,51.2,44.2,29.99,ESE,113,0.0,1.3,77,0.00,,,0.00,WUHU216HW,2013-02-02 14:26:00,
2013-02-02 08:31:00,53.7,45.6,29.99,ESE,113,0.4,0.4,74,0.00,,,0.00,WUHU216HW,2013-02-02 14:31:00,
2013-02-02 08:36:00,57.7,47.2,29.99,ESE,113,1.5,1.5,68,0.00,,,0.00,WUHU216HW,2013-02-02 14:36:00,
2013-02-02 08:41:00,59.5,48.1,29.99,East,90,2.2,3.5,66,0.00,,,0.00,WUHU216HW,2013-02-02 14:41:00,
2013-02-02 08:46:00,61.7,48.9,29.99,East,90,1.5,3.5,63,0.00,,,0.00,WUHU216HW,2013-02-02 14:46:00,
2013-02-02 08:51:00,64.2,49.5,29.99,East,90,2.6,2.6,59,0.00,,,0.00,WUHU216HW,2013-02-02 14:51:00,
2013-02-02 08:56:00,64.5,49.3,29.99,East,90,0.8,3.5,58,0.00,,,0.00,WUHU216HW,2013-02-02 14:56:00,
2013-02-02 09:01:00,66.2,50.5,29.99,East,90,1.7,3.5,57,0.00,,,0.00,WUHU216HW,2013-02-02 15:01:00,
2013-02-02 09:06:00,67.8,51.0,29.99,ESE,113,3.5,3.5,55,0.00,,,0.00,WUHU216HW,2013-02-02 15:06:00,
2013-02-02 09:11:00,68.9,51.0,29.99,ESE,113,3.1,3.5,53,0.00,,,0.00,WUHU216HW,2013-02-02 15:11:00,
2013-02-02 09:16:00,70.3,51.8,29.99,ESE,113,0.0,3.5,52,0.00,,,0.00,WUHU216HW,2013-02-02 15:16:00,
2013-02-02 09:21:00,73.2,52.8,29.99,NE,45,0.0,2.4,49,0.00,,,0.00,WUHU216HW,2013-02-02 15:21:00,
2013-02-02 09:26:00,74.1,52.5,29.99,East,90,1.5,2.2,47,0.00,,,0.00,WUHU216HW,2013-02-02 15:26:00,
2013-02-02 09:31:00,74.8,53.2,30.00,ESE,113,0.0,1.7,47,0.00,,,0.00,WUHU216HW,2013-02-02 15:31:00,
2013-02-02 09:36:00,76.8,53.7,30.00,ESE,113,0.0,0.0,45,0.00,,,0.00,WUHU216HW,2013-02-02 15:36:00,
2013-02-02 09:41:00,77.3,53.6,30.00,ENE,68,0.0,0.0,44,0.00,,,0.00,WUHU216HW,2013-02-02 15:41:00,
2013-02-02 09:46:00,77.9,54.1,30.00,SE,135,1.5,1.5,44,0.00,,,0.00,WUHU216HW,2013-02-02 15:46:00,
2013-02-02 09:51:00,75.7,52.2,30.00,SSE,158,0.0,3.1,44,0.00,,,0.00,WUHU216HW,2013-02-02 15:51:00,
2013-02-02 09:56:00,74.8,52.5,30.00,ESE,113,0.0,3.1,46,0.00,,,0.00,WUHU216HW,2013-02-02 15:56:00,
2013-02-02 10:01:00,73.5,52.5,30.00,SE,135,0.0,1.3,48,0.00,,,0.00,WUHU216HW,2013-02-02 16:01:00,
2013-02-02 10:06:00,72.3,51.4,30.00,ESE,113,2.4,2.9,48,0.00,,,0.00,WUHU216HW,2013-02-02 16:06:00,
2013-02-02 10:11:00,71.2,51.6,29.99,SSE,158,0.0,2.9,50,0.00,,,0.00,WUHU216HW,2013-02-02 16:11:00,
2013-02-02 10:16:00,70.3,51.3,30.00,ESE,113,0.0,3.8,51,0.00,,,0.00,WUHU216HW,2013-02-02 16:16:00,
2013-02-02 10:21:00,69.8,51.3,30.00,SE,135,0.0,3.8,52,0.00,,,0.00,WUHU216HW,2013-02-02 16:21:00,
2013-02-02 10:26:00,68.7,50.8,30.00,SSW,203,0.0,2.6,53,0.00,,,0.00,WUHU216HW,2013-02-02 16:26:00,
2013-02-02 10:31:00,67.8,50.5,30.00,ESE,113,1.5,2.6,54,0.00,,,0.00,WUHU216HW,2013-02-02 16:31:00,
2013-02-02 10:36:00,68.1,51.3,29.99,NE,45,1.7,2.2,55,0.00,,,0.00,WUHU216HW,2013-02-02 16:36:00,
2013-02-02 10:41:00,68.5,51.6,30.00,West,270,0.0,2.2,55,0.00,,,0.00,WUHU216HW,2013-02-02 16:41:00,
2013-02-02 10:46:00,68.3,51.5,30.00,SW,225,0.0,1.7,55,0.00,,,0.00,WUHU216HW,2013-02-02 16:46:00,
2013-02-02 10:51:00,68.1,51.3,30.00,SW,225,0.0,0.0,55,0.00,,,0.00,WUHU216HW,2013-02-02 16:51:00,
2013-02-02 10:56:00,68.1,51.3,29.99,ENE,68,2.2,2.2,55,0.00,,,0.00,WUHU216HW,2013-02-02 16:56:00,
2013-02-02 11:01:00,68.7,52.3,29.99,WSW,248,0.8,2.2,56,0.00,,,0.00,WUHU216HW,2013-02-02 17:01:00,
2013-02-02 11:06:00,69.0,52.1,29.99,East,90,2.4,2.6,55,0.00,,,0.00,WUHU216HW,2013-02-02 17:06:00,
2013-02-02 11:11:00,69.4,52.5,29.99,ESE,113,0.0,2.6,55,0.00,,,0.00,WUHU216HW,2013-02-02 17:11:00,
2013-02-02 11:16:00,69.8,53.0,29.99,ESE,113,1.5,2.4,56,0.00,,,0.00,WUHU216HW,2013-02-02 17:16:00,
2013-02-02 11:21:00,70.1,53.2,29.99,ESE,113,0.0,1.5,55,0.00,,,0.00,WUHU216HW,2013-02-02 17:21:00,
2013-02-02 11:26:00,70.5,53.0,29.99,ESE,113,1.1,1.1,54,0.00,,,0.00,WUHU216HW,2013-02-02 17:26:00,
2013-02-02 11:31:00,70.8,53.3,29.99,ESE,113,0.0,2.2,54,0.00,,,0.00,WUHU216HW,2013-02-02 17:31:00,
2013-02-02 11:36:00,71.2,53.6,29.99,ESE,113,0.0,2.2,54,0.00,,,0.00,WUHU216HW,2013-02-02 17:36:00,
2013-02-02 11:41:00,71.7,54.1,29.98,WSW,248,0.0,0.0,54,0.00,,,0.00,WUHU216HW,2013-02-02 17:41:00,
2013-02-02 11:46:00,71.7,53.6,29.99,South,180,3.3,3.3,53,0.00,,,0.00,WUHU216HW,2013-02-02 17:46:00,
2013-02-02 11:51:00,71.6,53.4,29.98,SSW,203,2.9,3.3,53,0.00,,,0.00,WUHU216HW,2013-02-02 17:51:00,
2013-02-02 11:56:00,71.7,53.6,29.98,SSW,203,0.0,3.3,53,0.00,,,0.00,WUHU216HW,2013-02-02 17:56:00,
2013-02-02 12:01:00,71.9,52.8,29.98,West,270,1.1,4.9,52,0.00,,,0.00,WUHU216HW,2013-02-02 18:01:00,
2013-02-02 12:06:00,71.6,52.4,29.98,SSW,203,4.0,4.9,51,0.00,,,0.00,WUHU216HW,2013-02-02 18:06:00,
2013-02-02 12:11:00,71.4,52.8,29.97,WSW,248,0.0,4.0,52,0.00,,,0.00,WUHU216HW,2013-02-02 18:11:00,
2013-02-02 12:16:00,71.9,53.3,29.97,ESE,113,1.5,4.0,52,0.00,,,0.00,WUHU216HW,2013-02-02 18:16:00,
2013-02-02 12:21:00,72.3,53.6,29.97,NNW,338,0.0,4.6,52,0.00,,,0.00,WUHU216HW,2013-02-02 18:21:00,
2013-02-02 12:26:00,72.3,53.6,29.97,ESE,113,3.5,5.8,52,0.00,,,0.00,WUHU216HW,2013-02-02 18:26:00,
2013-02-02 12:31:00,72.1,52.9,29.97,ENE,68,0.0,5.8,51,0.00,,,0.00,WUHU216HW,2013-02-02 18:31:00,
2013-02-02 12:36:00,72.6,53.4,29.97,SSE,158,0.0,4.9,51,0.00,,,0.00,WUHU216HW,2013-02-02 18:36:00,
2013-02-02 12:41:00,73.0,53.2,29.97,SSE,158,2.2,4.9,50,0.00,,,0.00,WUHU216HW,2013-02-02 18:41:00,
2013-02-02 12:46:00,73.2,53.4,29.97,ESE,113,0.0,2.4,50,0.00,,,0.00,WUHU216HW,2013-02-02 18:46:00,
2013-02-02 12:51:00,73.2,53.4,29.97,ESE,113,3.3,3.8,50,0.00,,,0.00,WUHU216HW,2013-02-02 18:51:00,
2013-02-02 12:56:00,73.2,53.4,29.97,ESE,113,3.3,3.8,50,0.00,,,0.00,WUHU216HW,2013-02-02 18:56:00,
2013-02-02 13:01:00,73.7,53.5,29.96,SE,135,0.0,7.1,49,0.00,,,0.00,WUHU216HW,2013-02-02 19:01:00,
2013-02-02 13:06:00,74.1,53.7,29.96,SSE,158,3.1,3.1,49,0.00,,,0.00,WUHU216HW,2013-02-02 19:06:00,
2013-02-02 13:11:00,74.3,53.8,29.96,WNW,293,8.2,13.1,49,0.00,,,0.00,WUHU216HW,2013-02-02 19:11:00,
2013-02-02 13:16:00,74.4,54.0,29.96,WNW,293,2.6,13.1,49,0.00,,,0.00,WUHU216HW,2013-02-02 19:16:00,
2013-02-02 13:21:00,74.4,54.0,29.96,NNW,338,7.3,8.7,49,0.00,,,0.00,WUHU216HW,2013-02-02 19:21:00,
2013-02-02 13:26:00,74.4,53.4,29.95,North,0,2.9,8.7,48,0.00,,,0.00,WUHU216HW,2013-02-02 19:26:00,
2013-02-02 13:31:00,74.6,53.6,29.95,NW,315,1.7,7.3,48,0.00,,,0.00,WUHU216HW,2013-02-02 19:31:00,
2013-02-02 13:36:00,74.8,53.8,29.95,NW,315,9.1,9.1,48,0.00,,,0.00,WUHU216HW,2013-02-02 19:36:00,
2013-02-02 13:41:00,74.8,52.5,29.95,West,270,3.3,9.1,46,0.00,,,0.00,WUHU216HW,2013-02-02 19:41:00,
2013-02-02 13:46:00,74.8,53.2,29.95,North,0,2.2,9.1,47,0.00,,,0.00,WUHU216HW,2013-02-02 19:46:00,
2013-02-02 13:51:00,74.8,53.2,29.95,NW,315,4.0,4.0,47,0.00,,,0.00,WUHU216HW,2013-02-02 19:51:00,
2013-02-02 13:56:00,75.0,52.7,29.94,WNW,293,7.1,7.1,46,0.00,,,0.00,WUHU216HW,2013-02-02 19:56:00,
2013-02-02 14:01:00,75.0,52.7,29.94,West,270,2.2,7.1,46,0.00,,,0.00,WUHU216HW,2013-02-02 20:01:00,
2013-02-02 14:06:00,75.2,52.9,29.94,NNW,338,1.1,7.1,46,0.00,,,0.00,WUHU216HW,2013-02-02 20:06:00,
2013-02-02 14:11:00,75.2,52.3,29.94,WNW,293,8.7,8.7,45,0.00,,,0.00,WUHU216HW,2013-02-02 20:11:00,
2013-02-02 14:16:00,75.0,52.1,29.94,NW,315,5.8,8.7,45,0.00,,,0.00,WUHU216HW,2013-02-02 20:16:00,
2013-02-02 14:21:00,75.0,52.1,29.94,WSW,248,2.6,5.8,45,0.00,,,0.00,WUHU216HW,2013-02-02 20:21:00,
2013-02-02 14:26:00,75.0,52.7,29.94,ENE,68,0.0,5.8,46,0.00,,,0.00,WUHU216HW,2013-02-02 20:26:00,
2013-02-02 14:31:00,75.0,52.1,29.94,NE,45,0.0,3.3,45,0.00,,,0.00,WUHU216HW,2013-02-02 20:31:00,
2013-02-02 14:36:00,75.0,52.1,29.94,NNE,23,0.0,3.3,45,0.00,,,0.00,WUHU216HW,2013-02-02 20:36:00,
2013-02-02 14:41:00,75.2,52.3,29.94,NW,315,0.0,8.0,45,0.00,,,0.00,WUHU216HW,2013-02-02 20:41:00,
2013-02-02 14:46:00,75.5,52.6,29.94,North,0,6.0,8.0,45,0.00,,,0.00,WUHU216HW,2013-02-02 20:46:00,
2013-02-02 14:51:00,75.7,52.2,29.94,NNW,338,0.2,6.0,44,0.00,,,0.00,WUHU216HW,2013-02-02 20:51:00,
2013-02-02 14:56:00,75.9,52.9,29.94,North,0,3.5,6.0,45,0.00,,,0.00,WUHU216HW,2013-02-02 20:56:00,
2013-02-02 15:01:00,75.9,52.3,29.94,NNW,338,0.0,4.6,44,0.00,,,0.00,WUHU216HW,2013-02-02 21:01:00,
2013-02-02 15:06:00,76.2,52.7,29.94,NNE,23,4.4,4.4,44,0.00,,,0.00,WUHU216HW,2013-02-02 21:06:00,
2013-02-02 15:11:00,75.9,51.7,29.94,NW,315,5.8,5.8,43,0.00,,,0.00,WUHU216HW,2013-02-02 21:11:00,
2013-02-02 15:16:00,75.9,52.3,29.94,NW,315,4.2,5.8,44,0.00,,,0.00,WUHU216HW,2013-02-02 21:16:00,
2013-02-02 15:21:00,76.1,51.9,29.94,West,270,0.0,4.2,43,0.00,,,0.00,WUHU216HW,2013-02-02 21:21:00,
2013-02-02 15:26:00,76.2,51.4,29.94,WSW,248,0.0,4.2,42,0.00,,,0.00,WUHU216HW,2013-02-02 21:26:00,
2013-02-02 15:31:00,76.2,51.4,29.93,NNE,23,1.7,1.7,42,0.00,,,0.00,WUHU216HW,2013-02-02 21:31:00,
2013-02-02 15:36:00,76.2,51.4,29.93,WSW,248,0.0,1.7,42,0.00,,,0.00,WUHU216HW,2013-02-02 21:36:00,
2013-02-02 15:41:00,76.8,51.9,29.93,NNW,338,0.6,2.6,42,0.00,,,0.00,WUHU216HW,2013-02-02 21:41:00,
2013-02-02 15:46:00,77.7,52.1,29.93,West,270,0.0,7.1,41,0.00,,,0.00,WUHU216HW,2013-02-02 21:46:00,
2013-02-02 15:51:00,77.7,52.1,29.93,NW,315,4.2,7.1,41,0.00,,,0.00,WUHU216HW,2013-02-02 21:51:00,
2013-02-02 15:56:00,77.5,51.9,29.93,NNW,338,3.1,4.2,41,0.00,,,0.00,WUHU216HW,2013-02-02 21:56:00,
2013-02-02 16:01:00,76.8,51.3,29.93,WSW,248,0.0,4.2,41,0.00,,,0.00,WUHU216HW,2013-02-02 22:01:00,
2013-02-02 16:06:00,77.9,52.3,29.93,NW,315,0.6,4.2,41,0.00,,,0.00,WUHU216HW,2013-02-02 22:06:00,
2013-02-02 16:11:00,79.1,52.8,29.93,NW,315,0.0,5.8,40,0.00,,,0.00,WUHU216HW,2013-02-02 22:11:00,
2013-02-02 16:16:00,79.7,52.5,29.93,North,0,0.0,5.8,39,0.00,,,0.00,WUHU216HW,2013-02-02 22:16:00,
2013-02-02 16:21:00,79.5,52.3,29.93,NNW,338,0.0,4.2,39,0.00,,,0.00,WUHU216HW,2013-02-02 22:21:00,
2013-02-02 16:26:00,80.4,52.4,29.93,NNW,338,1.3,3.8,38,0.00,,,0.00,WUHU216HW,2013-02-02 22:26:00,
2013-02-02 16:31:00,81.1,53.0,29.93,West,270,4.9,4.9,38,0.00,,,0.00,WUHU216HW,2013-02-02 22:31:00,
2013-02-02 16:36:00,80.4,51.6,29.94,NNE,23,4.0,5.8,37,0.00,,,0.00,WUHU216HW,2013-02-02 22:36:00,
2013-02-02 16:41:00,79.3,50.6,29.94,North,0,2.0,6.9,37,0.00,,,0.00,WUHU216HW,2013-02-02 22:41:00,
2013-02-02 16:46:00,78.4,50.6,29.94,West,270,1.7,6.9,38,0.00,,,0.00,WUHU216HW,2013-02-02 22:46:00,
2013-02-02 16:51:00,77.5,50.6,29.94,West,270,0.0,6.7,39,0.00,,,0.00,WUHU216HW,2013-02-02 22:51:00,
2013-02-02 16:56:00,77.3,50.4,29.94,West,270,2.0,6.7,39,0.00,,,0.00,WUHU216HW,2013-02-02 22:56:00,
2013-02-02 17:01:00,77.0,50.1,29.94,NNW,338,3.5,3.5,39,0.00,,,0.00,WUHU216HW,2013-02-02 23:01:00,
2013-02-02 17:06:00,77.0,50.1,29.94,WNW,293,2.2,3.5,39,0.00,,,0.00,WUHU216HW,2013-02-02 23:06:00,
2013-02-02 17:11:00,76.4,49.6,29.94,NNW,338,4.0,4.6,39,0.00,,,0.00,WUHU216HW,2013-02-02 23:11:00,
2013-02-02 17:16:00,75.5,48.8,29.94,WNW,293,11.4,11.4,39,0.00,,,0.00,WUHU216HW,2013-02-02 23:16:00,
2013-02-02 17:21:00,73.9,48.1,29.94,NE,45,0.0,11.4,40,0.00,,,0.00,WUHU216HW,2013-02-02 23:21:00,
2013-02-02 17:26:00,73.2,48.0,29.94,WSW,248,2.9,4.6,41,0.00,,,0.00,WUHU216HW,2013-02-02 23:26:00,
2013-02-02 17:27:00,72.1,47.7,29.95,West,270,7.3,7.3,42,0.00,,,0.00,WUHU216HW,2013-02-02 23:27:00,
2013-02-02 17:31:00,72.3,47.8,29.94,NNW,338,3.1,4.2,42,0.00,,,0.00,WUHU216HW,2013-02-02 23:31:00,
2013-02-02 17:37:00,71.9,47.5,29.95,NNE,23,0.0,7.3,42,0.00,,,0.00,WUHU216HW,2013-02-02 23:37:00,
2013-02-02 17:42:00,70.8,47.1,29.95,NW,315,0.0,4.2,43,0.00,,,0.00,WUHU216HW,2013-02-02 23:42:00,
2013-02-02 17:47:00,70.7,47.0,29.95,WNW,293,0.0,4.2,43,0.00,,,0.00,WUHU216HW,2013-02-02 23:47:00,
2013-02-02 17:52:00,70.1,47.1,29.96,NE,45,0.0,1.1,44,0.00,,,0.00,WUHU216HW,2013-02-02 23:52:00,
2013-02-02 17:57:00,69.6,47.2,29.96,NNW,338,3.3,3.3,45,0.00,,,0.00,WUHU216HW,2013-02-02 23:57:00,
2013-02-02 18:02:00,69.4,47.0,29.96,North,0,2.6,3.3,45,0.00,,,0.00,WUHU216HW,2013-02-03 00:02:00,
2013-02-02 18:07:00,68.9,47.1,29.96,NNE,23,1.7,6.0,46,0.00,,,0.00,WUHU216HW,2013-02-03 00:07:00,
2013-02-02 18:12:00,68.7,47.0,29.96,NNE,23,0.0,6.0,46,0.00,,,0.00,WUHU216HW,2013-02-03 00:12:00,
2013-02-02 18:17:00,68.3,47.2,29.97,NNE,23,0.0,2.0,47,0.00,,,0.00,WUHU216HW,2013-02-03 00:17:00,
2013-02-02 18:22:00,68.0,46.9,29.97,North,0,0.0,2.0,47,0.00,,,0.00,WUHU216HW,2013-02-03 00:22:00,
2013-02-02 18:27:00,67.8,46.7,29.97,NNE,23,0.0,2.0,47,0.00,,,0.00,WUHU216HW,2013-02-03 00:27:00,
2013-02-02 18:32:00,67.2,46.9,29.97,North,0,2.4,2.4,48,0.00,,,0.00,WUHU216HW,2013-02-03 00:32:00,
2013-02-02 18:37:00,66.7,46.4,29.97,North,0,2.2,2.4,48,0.00,,,0.00,WUHU216HW,2013-02-03 00:37:00,
2013-02-02 18:42:00,66.5,46.8,29.97,NNE,23,0.0,2.4,49,0.00,,,0.00,WUHU216HW,2013-02-03 00:42:00,
2013-02-02 18:47:00,66.2,46.5,29.97,NE,45,0.0,2.2,49,0.00,,,0.00,WUHU216HW,2013-02-03 00:47:00,
2013-02-02 18:52:00,66.0,46.3,29.98,NNW,338,1.1,1.1,49,0.00,,,0.00,WUHU216HW,2013-02-03 00:52:00,
2013-02-02 18:57:00,65.4,46.4,29.98,NE,45,0.0,1.1,50,0.00,,,0.00,WUHU216HW,2013-02-03 00:57:00,
2013-02-02 19:02:00,65.1,46.0,29.98,NE,45,0.0,0.0,50,0.00,,,0.00,WUHU216HW,2013-02-03 01:02:00,
2013-02-02 19:07:00,64.9,45.8,29.99,North,0,0.0,0.0,50,0.00,,,0.00,WUHU216HW,2013-02-03 01:07:00,
2013-02-02 19:12:00,64.5,45.5,29.99,North,0,0.0,0.0,50,0.00,,,0.00,WUHU216HW,2013-02-03 01:12:00,
2013-02-02 19:17:00,64.0,45.4,29.99,North,0,0.0,0.0,51,0.00,,,0.00,WUHU216HW,2013-02-03 01:17:00,
2013-02-02 19:22:00,63.6,45.1,29.99,North,0,0.0,0.0,51,0.00,,,0.00,WUHU216HW,2013-02-03 01:22:00,
2013-02-02 19:27:00,63.5,45.3,29.99,North,0,0.0,0.0,52,0.00,,,0.00,WUHU216HW,2013-02-03 01:27:00,
2013-02-02 19:32:00,63.1,45.1,30.00,North,0,0.0,0.0,52,0.00,,,0.00,WUHU216HW,2013-02-03 01:32:00,
2013-02-02 19:37:00,62.6,45.1,30.00,North,0,0.0,0.0,53,0.00,,,0.00,WUHU216HW,2013-02-03 01:37:00,
2013-02-02 19:42:00,62.2,44.8,30.00,NW,315,0.0,0.0,53,0.00,,,0.00,WUHU216HW,2013-02-03 01:42:00,
2013-02-02 19:47:00,61.8,44.5,30.00,NW,315,0.0,0.0,53,0.00,,,0.00,WUHU216HW,2013-02-03 01:47:00,
2013-02-02 19:52:00,61.5,44.6,30.00,NW,315,0.0,0.0,54,0.00,,,0.00,WUHU216HW,2013-02-03 01:52:00,
2013-02-02 19:57:00,61.5,44.6,30.00,NW,315,0.0,0.0,54,0.00,,,0.00,WUHU216HW,2013-02-03 01:57:00,
2013-02-02 20:02:00,61.1,44.3,30.00,NW,315,0.0,0.0,54,0.00,,,0.00,WUHU216HW,2013-02-03 02:02:00,
2013-02-02 20:07:00,60.6,44.3,30.01,NW,315,0.0,0.0,55,0.00,,,0.00,WUHU216HW,2013-02-03 02:07:00,
2013-02-02 20:12:00,60.4,44.1,30.01,NW,315,0.0,0.0,55,0.00,,,0.00,WUHU216HW,2013-02-03 02:12:00,
2013-02-02 20:17:00,60.0,44.2,30.02,NW,315,0.0,0.0,56,0.00,,,0.00,WUHU216HW,2013-02-03 02:17:00,
2013-02-02 20:22:00,59.5,43.7,30.02,West,270,0.0,0.0,56,0.00,,,0.00,WUHU216HW,2013-02-03 02:22:00,
2013-02-02 20:27:00,59.1,43.8,30.02,West,270,0.0,0.0,57,0.00,,,0.00,WUHU216HW,2013-02-03 02:27:00,
2013-02-02 20:32:00,59.0,43.7,30.03,West,270,0.0,0.0,57,0.00,,,0.00,WUHU216HW,2013-02-03 02:32:00,
2013-02-02 20:37:00,58.8,43.5,30.03,West,270,0.0,0.0,57,0.00,,,0.00,WUHU216HW,2013-02-03 02:37:00,
2013-02-02 20:42:00,58.8,43.5,30.04,West,270,0.0,0.0,57,0.00,,,0.00,WUHU216HW,2013-02-03 02:42:00,
2013-02-02 20:47:00,58.8,43.5,30.03,West,270,0.0,0.0,57,0.00,,,0.00,WUHU216HW,2013-02-03 02:47:00,
2013-02-02 20:52:00,58.4,43.2,30.04,West,270,0.0,0.0,57,0.00,,,0.00,WUHU216HW,2013-02-03 02:52:00,
2013-02-02 20:57:00,58.1,42.9,30.04,West,270,0.0,0.0,57,0.00,,,0.00,WUHU216HW,2013-02-03 02:57:00,
2013-02-02 21:02:00,57.9,43.2,30.04,West,270,0.0,0.0,58,0.00,,,0.00,WUHU216HW,2013-02-03 03:02:00,
2013-02-02 21:07:00,57.3,43.2,30.04,West,270,0.0,0.0,59,0.00,,,0.00,WUHU216HW,2013-02-03 03:07:00,
2013-02-02 21:12:00,57.0,43.3,30.04,West,270,0.0,0.0,60,0.00,,,0.00,WUHU216HW,2013-02-03 03:12:00,
2013-02-02 21:17:00,56.8,43.1,30.04,West,270,0.0,0.0,60,0.00,,,0.00,WUHU216HW,2013-02-03 03:17:00,
2013-02-02 21:22:00,56.4,43.1,30.05,West,270,0.0,0.0,61,0.00,,,0.00,WUHU216HW,2013-02-03 03:22:00,
2013-02-02 21:27:00,56.3,43.4,30.05,West,270,0.0,0.0,62,0.00,,,0.00,WUHU216HW,2013-02-03 03:27:00,
2013-02-02 21:32:00,56.1,43.2,30.05,West,270,0.0,0.0,62,0.00,,,0.00,WUHU216HW,2013-02-03 03:32:00,
2013-02-02 21:37:00,55.9,43.8,30.05,WNW,293,1.7,1.7,64,0.00,,,0.00,WUHU216HW,2013-02-03 03:37:00,
2013-02-02 21:42:00,55.7,43.7,30.05,West,270,0.0,1.7,64,0.00,,,0.00,WUHU216HW,2013-02-03 03:42:00,
2013-02-02 21:47:00,55.7,43.3,30.05,West,270,0.0,1.7,63,0.00,,,0.00,WUHU216HW,2013-02-03 03:47:00,
2013-02-02 21:52:00,55.4,42.9,30.05,West,270,0.0,0.0,63,0.00,,,0.00,WUHU216HW,2013-02-03 03:52:00,
2013-02-02 21:57:00,55.4,42.9,30.05,West,270,0.0,0.0,63,0.00,,,0.00,WUHU216HW,2013-02-03 03:57:00,
2013-02-02 22:02:00,55.2,42.7,30.05,West,270,0.0,0.0,63,0.00,,,0.00,WUHU216HW,2013-02-03 04:02:00,
2013-02-02 22:07:00,55.2,43.1,30.05,West,270,0.0,0.0,64,0.00,,,0.00,WUHU216HW,2013-02-03 04:07:00,
2013-02-02 22:12:00,55.2,43.1,30.05,West,270,0.0,0.0,64,0.00,,,0.00,WUHU216HW,2013-02-03 04:12:00,
2013-02-02 22:17:00,55.2,43.1,30.05,West,270,0.0,0.0,64,0.00,,,0.00,WUHU216HW,2013-02-03 04:17:00,
2013-02-02 22:22:00,55.2,43.1,30.05,West,270,0.0,0.0,64,0.00,,,0.00,WUHU216HW,2013-02-03 04:22:00,
2013-02-02 22:27:00,55.2,43.1,30.06,South,180,0.0,0.0,64,0.00,,,0.00,WUHU216HW,2013-02-03 04:27:00,
2013-02-02 22:32:00,55.0,42.6,30.06,South,180,0.0,0.0,63,0.00,,,0.00,WUHU216HW,2013-02-03 04:32:00,
2013-02-02 22:37:00,54.6,42.2,30.06,West,270,0.0,0.0,63,0.00,,,0.00,WUHU216HW,2013-02-03 04:37:00,
2013-02-02 22:42:00,54.6,42.2,30.06,West,270,0.0,0.0,63,0.00,,,0.00,WUHU216HW,2013-02-03 04:42:00,
2013-02-02 22:47:00,54.3,41.9,30.06,West,270,0.0,0.0,63,0.00,,,0.00,WUHU216HW,2013-02-03 04:47:00,
2013-02-02 22:52:00,54.3,42.3,30.06,SW,225,0.0,0.0,64,0.00,,,0.00,WUHU216HW,2013-02-03 04:52:00,
2013-02-02 22:57:00,54.1,42.1,30.06,SW,225,0.0,0.0,64,0.00,,,0.00,WUHU216HW,2013-02-03 04:57:00,
2013-02-02 23:00:00,53.9,42.0,30.06,SW,225,0.0,0.0,64,0.00,,,0.00,WUHU216HW,2013-02-03 05:00:00,
2013-02-02 23:05:00,53.9,42.4,30.06,SW,225,0.0,0.0,65,0.00,,,0.00,WUHU216HW,2013-02-03 05:05:00,
2013-02-02 23:10:00,53.7,42.6,30.06,SW,225,0.0,0.0,66,0.00,,,0.00,WUHU216HW,2013-02-03 05:10:00,
2013-02-02 23:15:00,53.4,42.6,30.06,SW,225,0.0,0.0,67,0.00,,,0.00,WUHU216HW,2013-02-03 05:15:00,
2013-02-02 23:20:00,53.4,43.0,30.06,SW,225,0.0,0.0,68,0.00,,,0.00,WUHU216HW,2013-02-03 05:20:00,
2013-02-02 23:25:00,53.2,42.9,30.06,SW,225,0.0,0.0,68,0.00,,,0.00,WUHU216HW,2013-02-03 05:25:00,
2013-02-02 23:30:00,53.2,43.3,30.07,West,270,0.0,0.0,69,0.00,,,0.00,WUHU216HW,2013-02-03 05:30:00,
2013-02-02 23:35:00,53.2,43.3,30.07,West,270,0.0,0.0,69,0.00,,,0.00,WUHU216HW,2013-02-03 05:35:00,
2013-02-02 23:40:00,52.8,43.4,30.07,West,270,0.0,0.0,70,0.00,,,0.00,WUHU216HW,2013-02-03 05:40:00,
2013-02-02 23:45:00,52.8,43.7,30.07,West,270,0.0,0.0,71,0.00,,,0.00,WUHU216HW,2013-02-03 05:45:00,
2013-02-02 23:50:00,53.0,43.5,30.07,West,270,0.0,0.0,70,0.00,,,0.00,WUHU216HW,2013-02-03 05:50:00,
2013-02-02 23:55:00,53.2,44.0,30.07,West,270,0.0,0.0,71,0.00,,,0.00,WUHU216HW,2013-02-03 05:55:00,